TimeCDT,TemperatureF,Dew PointF,Humidity,Sea Level PressureIn,VisibilityMPH,Wind Direction,Wind SpeedMPH,Gust SpeedMPH,PrecipitationIn,Events,Conditions,WindDirDegrees,DateUTC
12:53 AM,73.0,55.0,53,29.94,10.0,ENE,9.2,-,N/A,,Clear,60,2013-09-03 05:53:00
1:53 AM,70.0,55.0,59,29.95,10.0,East,4.6,-,N/A,,Clear,90,2013-09-03 06:53:00
2:53 AM,69.1,55.0,61,29.95,10.0,NE,8.1,-,N/A,,Clear,50,2013-09-03 07:53:00
3:53 AM,68.0,55.0,63,29.95,10.0,NE,9.2,-,N/A,,Clear,40,2013-09-03 08:53:00
4:53 AM,66.9,55.0,66,29.95,10.0,NE,9.2,-,N/A,,Clear,40,2013-09-03 09:53:00
5:53 AM,66.0,55.0,68,29.96,10.0,NE,9.2,-,N/A,,Clear,40,2013-09-03 10:53:00
6:53 AM,64.9,55.0,70,29.97,10.0,NNE,8.1,-,N/A,,Clear,30,2013-09-03 11:53:00
7:53 AM,68.0,57.0,68,29.99,10.0,NE,6.9,-,N/A,,Clear,40,2013-09-03 12:53:00
8:53 AM,75.0,57.9,55,30.00,10.0,ENE,10.4,-,N/A,,Clear,60,2013-09-03 13:53:00
9:53 AM,81.0,59.0,47,30.01,10.0,East,10.4,-,N/A,,Clear,80,2013-09-03 14:53:00
10:53 AM,84.0,59.0,43,30.02,10.0,ESE,8.1,-,N/A,,Clear,110,2013-09-03 15:53:00
11:53 AM,87.1,55.9,35,30.01,10.0,Variable,5.8,-,N/A,,Clear,0,2013-09-03 16:53:00
12:53 PM,89.1,55.0,31,29.99,10.0,Variable,5.8,-,N/A,,Clear,0,2013-09-03 17:53:00
1:53 PM,91.0,55.0,29,29.96,10.0,Variable,4.6,-,N/A,,Clear,0,2013-09-03 18:53:00
2:53 PM,95.0,48.9,21,29.94,10.0,North,5.8,-,N/A,,Clear,10,2013-09-03 19:53:00
3:53 PM,97.0,46.9,18,29.91,10.0,NNE,8.1,-,N/A,,Clear,20,2013-09-03 20:53:00
4:53 PM,97.0,48.0,19,29.90,10.0,ENE,10.4,18.4,N/A,,Clear,60,2013-09-03 21:53:00
5:53 PM,96.1,48.9,20,29.89,10.0,ENE,9.2,-,N/A,,Clear,70,2013-09-03 22:53:00
6:53 PM,93.0,48.0,21,29.89,10.0,East,12.7,-,N/A,,Clear,80,2013-09-03 23:53:00
7:53 PM,88.0,48.0,25,29.90,10.0,ENE,6.9,-,N/A,,Clear,60,2013-09-04 00:53:00
8:53 PM,81.0,48.0,31,29.92,10.0,ENE,8.1,-,N/A,,Clear,70,2013-09-04 01:53:00
9:53 PM,78.1,48.9,36,29.94,10.0,ENE,9.2,-,N/A,,Clear,70,2013-09-04 02:53:00
10:53 PM,77.0,52.0,42,29.95,10.0,ENE,10.4,-,N/A,,Clear,60,2013-09-04 03:53:00
11:53 PM,73.9,53.1,48,29.95,10.0,ENE,9.2,-,N/A,,Clear,70,2013-09-04 04:53:00